Location: B?lite?ti
(46.2833°N, 22.7333°E)
Time: 16:36:21
(UTC+00:00)

NOSS 3-1 (A) - Pass Details

Date: 24 January 2021
Orbit: 735 x 1477 km, 63.4° (Epoch: 26 February)

Event Time Altitude Azimuth Distance (km) Brightness Sun altitude
Rises 16:58:32 0° 321° (NW) 3,874 7.0 -16.6°
Reaches altitude 10° 17:01:05 10° 325° (NW) 3,017 6.4 -17.0°
Maximum altitude 17:08:23 62° 46° (NE) 1,421 4.1 -18.2°
Enters shadow 17:15:14 17° 123° (ESE) 2,962 5.6 -19.4°
